Location: Rounton
(54.4000°N, 1.3500°W)
Time: 18:16:06
(UTC+00:00)

Vanguard 3 - Visible Passes

Search period start: 30 November 2021 00:00
Search period end: 10 December 2021 00:00
Orbit: 509 x 3260 km, 33.3° (Epoch: 29 November)

Date Brightness Start Highest point End Pass type
(mag) Time Alt. Az. Time Alt. Az. Time Alt. Az.
30 Nov 11.4 02:50:08 10° S 02:59:06 15° SE 03:07:11 10° ESE visible
30 Nov 10.9 04:57:43 10° SSW 05:11:38 27° SSE 05:22:17 10° ESE visible
30 Nov 10.7 07:10:59 10° WSW 07:24:07 29° S 07:33:13 10° SE visible
01 Dec 11.1 03:43:06 10° SSW 03:56:17 23° SSE 04:07:18 10° ESE visible
01 Dec 10.7 05:54:29 10° SW 06:09:05 31° S 06:19:42 10° ESE visible
02 Dec 11.3 02:32:17 13° S 02:41:01 18° SE 02:50:56 10° ESE visible
02 Dec 10.8 04:38:43 10° SW 04:53:43 30° SSE 05:05:30 10° ESE visible
02 Dec 10.7 06:52:15 10° WSW 07:06:27 31° S 07:16:28 10° SE visible
03 Dec 11.4 01:22:48 11° SE 01:26:02 12° SE 01:31:09 10° ESE visible
03 Dec 11.0 03:27:23 16° SSW 03:38:13 26° SSE 03:50:27 10° ESE visible
03 Dec 10.7 05:35:42 10° SW 05:51:14 33° S 06:02:50 10° ESE visible
04 Dec 11.1 02:17:43 18° SSE 02:22:49 20° SE 02:34:13 10° ESE visible
04 Dec 10.8 04:22:18 14° SW 04:35:41 32° SSE 04:48:31 10° ESE visible
04 Dec 10.7 06:33:36 10° WSW 06:48:38 32° SSW 06:59:33 10° SE visible
05 Dec 11.3 01:07:56 14° SE 01:07:56 14° SE 01:15:34 10° ESE visible
05 Dec 10.9 03:12:29 22° S 03:20:02 28° SSE 03:33:22 10° ESE visible
05 Dec 10.7 05:17:03 10° SW 05:33:15 34° S 05:45:49 10° ESE visible
06 Dec 11.0 02:02:35 22° SSE 02:04:33 23° SSE 02:17:06 10° ESE visible
06 Dec 10.7 04:07:08 21° SSW 04:17:32 34° S 04:31:20 10° ESE visible
06 Dec 10.7 06:15:01 10° WSW 06:30:40 33° SSW 06:42:28 10° SE visible
07 Dec 11.3 00:52:35 15° SE 00:52:35 15° SE 00:58:55 10° ESE visible
07 Dec 10.8 02:57:08 28° S 03:01:46 30° SSE 03:16:03 10° ESE visible
07 Dec 10.7 05:01:40 16° SW 05:15:08 36° S 05:28:37 10° SE visible
07 Dec 10.8 07:13:45 10° WSW 07:27:45 28° SSW 07:38:20 10° SSE visible
08 Dec 10.9 01:47:03 25° SE 01:47:03 25° SE 01:59:43 10° ESE visible
08 Dec 10.7 03:51:35 27° SSW 03:59:18 35° S 04:13:59 10° ESE visible
08 Dec 10.7 05:56:35 10° WSW 06:12:36 33° SSW 06:25:14 10° SE visible
09 Dec 11.3 00:36:54 15° ESE 00:36:54 15° ESE 00:41:44 10° ESE visible
09 Dec 10.7 02:41:27 31° S 02:43:26 32° SSE 02:58:31 10° ESE visible
09 Dec 10.6 04:45:58 22° SW 04:56:56 36° S 05:11:14 10° SE visible
09 Dec 10.9 06:55:22 10° WSW 07:09:40 27° SSW 07:20:58 10° SSE visible
